Regional Weather Roundup
Issued by NWS

Home | Current Version | Previous Version | Graphics & Text | Print | Product List | Glossary On
Versions: 1 2 3 4 5 6 7 8 9 10 11 12 13 14 15 16 17 18 19 20 21 22 23 24 25 26 27 28 29 30 31 32 33 34 35 36 37 38 39 40 41 42 43 44 45 46 47 48 49 50
000
ASUS45 KSLC 220510
RWRUT

UTAH REGIONAL WEATHER ROUNDUP
NATIONAL WEATHER SERVICE SALT LAKE CITY UT
1000 PM MST SUN JAN 21 2018

UTZ001>011-023>025-220600-

NORTHERN UTAH

CITY           SKY/WX    TMP DP  RH WIND       PRES   REMARKS
BRIGHAM CITY   CLEAR     29  21  69 CALM      30.29S
HILL AFB       CLEAR     22  15  73 SE10      30.26S WCI  12
LOGAN          CLEAR     18  12  77 NE3       30.28R
OGDEN          CLEAR     23  17  78 S8        30.27R WCI  14
SALT LAKE CITY PTCLDY    28  19  69 SE9       30.29R WCI  19
TOOELE VALLEY  CLEAR     21  18  86 S10       30.29R WCI  10
WENDOVER       PTCLDY    23  18  81 NE6       30.27R WCI  16
HEBER CITY       N/A     10   5  79 CALM      30.24S
WEST JORDAN    CLEAR     19  12  76 S6        30.29R WCI  10

$$

UTZ011>015-024>027-220600-

CENTRAL/NORTHEAST UTAH

CITY           SKY/WX    TMP DP  RH WIND       PRES   REMARKS
PROVO AIRPORT  PTCLDY    17  14  88 CALM      30.31R
MOAB/CANYONLAN CLEAR     26  21  81 W6        30.19R WCI  19
DELTA          PTCLDY     9   9 100 S9        30.31R WCI  -5
PRICE          PTCLDY    24  12  60 NW22G30   30.16R WCI   9
RICHFIELD      CLEAR      7   7 100 CALM      30.31R
ROOSEVELT      PTCLDY    19  14  79 W5        30.21R WCI  13
VERNAL         CLEAR     12   8  84 NW3       30.18R

$$

UTZ013>016-019>022-027-220600-

SOUTHERN UTAH

CITY           SKY/WX    TMP DP  RH WIND       PRES   REMARKS
BRYCE CANYON   PTCLDY    11   6  81 NW8       30.20R WCI  -1
CEDAR CITY     PTCLDY     7   6  96 E3        30.26R
MILFORD        PTCLDY    12   7  80 SW8       30.30  WCI   0
ST GEORGE      CLEAR     35  22  58 CALM      30.32R
HANKSVILLE     CLEAR     27  10  50 CALM      30.24R
KANAB          CLEAR     28   9  43 N14       30.29R WCI  17
BLANDING         N/A     21   9  59 NW10      30.22R WCI  10

$$

REGIONAL REPORTS     COLORADO/ARIZONA

CITY           SKY/WX    TMP DP  RH WIND       PRES   REMARKS
CRAIG, CO      MOCLDY    13   7  77 W6        30.14R WCI   4
GRAND JUNCTION MOCLDY    20  13  74 CALM      30.19R
RIFLE, CO      MOCLDY    25  17  72 W14       30.16R WCI  13
MONTROSE, CO   CLOUDY    19  13  77 E5        30.19R WCI  12
CORTEZ, CO     CLEAR     16  10  77 CALM      30.14R
COLORADO CITY    N/A     28  18  64 NW5       30.29R WCI  23
PAGE, AZ       CLEAR     35  10  35 NW7       30.22R WCI  29
GRAND CANYON   CLEAR      8   8 100 CALM      30.21R
KINGMAN, AZ    CLEAR    N/A N/A N/A E10       30.29R
FLAGSTAFF, AZ  PTCLDY    20   9  62 W3        30.17R

$$

REGIONAL REPORTS    NEVADA/IDAHO/WYOMING

CITY           SKY/WX    TMP DP  RH WIND       PRES   REMARKS
LAS VEGAS, NV  PTCLDY    45  20  36 SW3       30.31R
ELY, NY        CLEAR      1  -3  83 S18       30.26R WCI -20
ELKO, NV       PTCLDY    24  18  77 CALM      30.23S
POCATELLO, ID  CLEAR     27  18  69 S3        30.21F
BURLEY, ID     CLEAR     32  20  61 S14       30.19F WCI  22
FORT BRIDGER,    N/A     15  10  81 W17G25    30.19R WCI  -1
EVANSTON, WY   CLEAR      8   5  87 SW10      30.18R WCI  -6
ROCK SPRINGS,  PTCLDY    13   8  81 W24       30.11R WCI  -7

$$



USA.gov is the U.S. government's official web portal to all federal, state and local government web resources and services.